Regional Weather Roundup
Issued by NWS Charleston, SC

Current Version | Previous Version | Text Only | Print | Product List | Glossary Off
Versions: 1 2 3 4 5 6 7 8 9 10 11 12 13 14 15 16 17 18 19 20 21 22 23 24 25 26 27 28 29 30 31 32 33 34 35 36 37 38 39 40 41 42 43 44 45 46 47 48 49 50
000 ASUS42 KCHS 261413 RWRCHS REGIONAL WEATHER ROUNDUP NATIONAL WEATHER SERVICE CHARLESTON SC 1000 AM EDT THU MAY 26 2016 NOTE: "FAIR" INDICATES FEW OR NO CLOUDS BELOW 12,000 FEET WITH NO SIGNIFICANT WEATHER AND/OR OBSTRUCTIONS TO VISIBILITY. NOT ALL STATIONS ARE QUALITY CONTROLLED. USE DATA WITH CAUTION... ESPECIALLY DEWPOINT OBSERVATIONS. SCZ027-030-031-034>040-042>050-261500- ...SOUTHEAST SOUTH CAROLINA... CITY SKY/WX TMP DP RH WIND PRES REMARKS N CHARLESTON MOSUNNY 81 63 54 VRB7 30.21F WATERFRONT PRK N/A 77 66 68 S5 30.19F MOUNT PLEASANT FAIR 81 64 57 S5 30.22S JOHNS ISLAND FAIR 81 66 61 VRB6 30.22S PINOPOLIS N/A 81 70 69 SW7 30.15R MONCKS CORNER FAIR 77 61 57 SW9 30.21F SUMMERVILLE FAIR 81 70 69 S5 30.23S BEAUFORT MCAS CLOUDY 82 63 52 VRB6 30.22S BEAUFORT ARPT FAIR 79 61 53 SW6 30.21F HILTON HEAD IS SUNNY 82 63 51 S7 30.23S WALTERBORO MOSUNNY 79 68 69 W9 30.23S ALLENDALE FAIR 77 66 69 VRB7 30.21S ...SOUTHERN MIDLANDS AND PEE DEE... CITY SKY/WX TMP DP RH WIND PRES REMARKS GEORGETOWN FAIR 77 64 65 S6 30.23S KINGSTREE FAIR 79 64 61 S5 30.21F ORANGEBURG SUNNY 78 66 66 W9 30.22F BARNWELL FAIR 81 68 65 SW6 30.22F AIKEN FAIR 77 59 53 SW9 30.24F MANNING FAIR 77 66 69 SW10 30.22S COLUMBIA MOSUNNY 79 61 53 S6 30.19F SUMTER SUNNY 77 65 65 SW9 30.19S FLORENCE NOT AVBL MYRTLE BEACH SUNNY 81 61 50 SW12 30.23F N MYRTLE BEACH MOSUNNY 79 64 60 SW13 30.21F $$ GAZ063-065-086>088-099>101-113>116-118-119-134>141-150-261500- ...SOUTHEAST GEORGIA... CITY SKY/WX TMP DP RH WIND PRES REMARKS SAVANNAH ARPT MOSUNNY 79 67 66 SW6 30.22F HUNTER AAF SUNNY 81 67 62 W3 30.20R FORT STEWART SUNNY 78 67 67 VRB1 30.20S STATESBORO SUNNY 78 69 74 SW9 30.22S SYLVANIA SUNNY 80 69 69 S3 30.22F CLAXTON FAIR 79 69 71 SW3 30.21F ...CSRA...CENTRAL AND FAR SOUTHEAST GEORGIA... CITY SKY/WX TMP DP RH WIND PRES REMARKS THOMSON SUNNY 79 66 64 SW5 30.24F AUGUSTA-BUSH SUNNY 78 61 55 SW8 30.20S AUGUSTA-DANIEL SUNNY 79 60 52 SW8 30.21F SWAINSBORO FAIR 79 61 53 SW8 30.22S VIDALIA SUNNY 77 63 61 SW8 30.22R EASTMAN CLOUDY 77 59 52 SW5 30.24R HAZLEHURST FAIR 79 64 59 SW8 30.21R ALMA SUNNY 78 65 63 S8 30.21F WAYCROSS SUNNY 78 67 68 SW6 30.21S JESUP FAIR 75 63 64 S5 30.21F BAXLEY FAIR 79 64 61 SW5 30.21S BRUNSWICK PTSUNNY 79 64 61 CALM 30.22F SAINT SIMONS PTSUNNY 80 63 55 E7 30.21S $$ SCZ027-028-034-036>038-045-046-048>050-GAZ119-141-261500- ...LAKE AND SUPPLEMENTAL COASTAL OBSERVATIONS... STATION/POSITION TIME TEMP WIND PRES WAVE SWELL AIR SEA DIR/SP/G HT/PER HT/PER/DIR (UTC) (F) (DEG/KT/KT) (MB) (FT/S) (FT/S/D) WINYAH BAY 1245 76 220/ 7 1023.0 LAKE MURRAY 1300 74 250/ 6/ 9 1022.4S ACE BASIN NERRS NOT AVBL FORT PULASKI 1300 78 76 200/ 5/ 6 1023.5R SAPELO ISLAND 1300 80 150/ 4 1023.0R $$ ANZ835-935-AMZ111-154-330-350-352-354-370-450-454-472-261500- ...C-MAN AND BUOY OBSERVATIONS... STATION/POSITION TIME TEMP WIND PRES WAVE SWELL AIR SEA DIR/SP/G HT/PER HT/PER/DIR (UTC) (F) (DEG/KT/KT) (MB) (FT/S) (FT/S/D) BUOY 41004 1350 77 76 170/ 4/ 6 1023.0F 2/ 8 2/ 8 BUOY 41008 1350 77 76 170/ 4/ 6 1023.2R 2/ 8 2/110/ 8 FOLLY BEACH CMAN 1400 77 190/ 4/ 5 1023.5S CAPERS NEARSHORE 1308 76 75 180/ 6/ 10 1023.1R FRIPP NEARSHORE 1308 77 76 190/ 4/ 6 1022.7R STATION/POSITION TIME TEMP WIND PRES WAVE SWELL AIR SEA DIR/SP/G HT/PER HT/PER/DIR (UTC) (F) (DEG/KT/KT) (MB) (FT/S) (FT/S/D) 5E ST. MARYS GA 1321 78 N/A 2/ 8 FRYING PAN BUOY 1300 77 76 190/ 4/ 6 1023.5S BUOY 41025 1350 72 69 250/ 6/ 6 1023.7F 2/ 8 2/150/ 8 CAPE LOOKOUT NC 1400 76 220/ 9/ 12 1023.1F BUOY 41002 1350 75 78 50/ 12/ 14 1023.1F 2/ 8 2/ 90/ 8 BUOY 41010 1320 76 78 50/ 10/ 14 1021.1F ST AUGUSTINE FL 1400 76 78 70/ 5/ 6 1023.5R $$

USA.gov is the U.S. government's official web portal to all federal, state and local government web resources and services.